Regional Weather Roundup
Issued by NWS Kansas City/Pleasant Hill, MO

Home | Current Version | Previous Version | Text Only | Print | Product List | Glossary On
Versions: 1 2 3 4 5 6 7 8 9 10 11 12 13 14 15 16 17 18 19 20 21 22 23 24 25 26 27 28 29 30 31 32 33 34 35 36 37 38 39 40 41 42 43 44 45 46 47 48 49
000
ASUS43 KEAX 300710
RWREAX

WEATHER ROUNDUP FOR EASTERN KANSAS AND NORTHWEST MISSOURI
NATIONAL WEATHER SERVICE KANSAS CITY/PLEASANT HILL MO
200 AM CDT SUN AUG 30 2015

KSZ040-057-103>105-MOZ028-029-037-043-300800-
...KANSAS CITY METROPOLITAN AREA...

CITY           SKY/WX    TMP DP  RH WIND       PRES   REMARKS
K.C. INTL      PTCLDY    64  59  83 N5        30.04F
K.C. DOWNTOWN  CLOUDY    68  66  93 N3        30.02F
LEES SUMMIT    PTCLDY    67  64  90 N6        30.03F
OLATHE - IXD   PTCLDY    66  65  96 NW5       30.04F
OLATHE - OJC   MOCLDY    68  66  93 CALM      30.03S
LAWRENCE       MOCLDY    65  64  97 CALM      30.03F

$$

MOZ001>008-011>017-020>025-030>033-038>040-044>046-053-054-300800-
...NORTHERN AND CENTRAL MISSOURI...

CITY           SKY/WX    TMP DP  RH WIND       PRES   REMARKS
ST. JOSEPH     CLOUDY    64  63  96 NE3       30.04F
MOSBY          MOSUNNY   64  64 100 CALM      30.03S
WARRENSBURG    PTCLDY    68  66  94 NW3       30.01F
WHITEMAN AFB   FOG       66  66 100 N3        29.99F VSB 1/2
CLINTON        CLEAR     68  68 100 CALM      30.01F FOG
SEDALIA        FOG       68  66  93 CALM      30.02S VSB 1/2
WARSAW         NOT AVBL
CHILLICOTHE      N/A     67  65  93 CALM      30.04S
KIRKSVILLE     CLOUDY    67  65  93 N3        30.04F FOG

$$

MOZ041-047>049-056>058-063>065-088>090-097-300800-
...EASTERN AND SOUTHERN MISSOURI...

CITY           SKY/WX    TMP DP  RH WIND       PRES   REMARKS
ST. LOUIS INTL CLOUDY    76  66  71 CALM      30.02S
SPIRIT OF STL  PTCLDY    72  69  90 CALM      30.00F
COLUMBIA       CLOUDY    71  69  93 SE3       30.02F
JEFFERSON CITY CLEAR     70  68  93 CALM      30.01S
ROLLA          CLEAR     65  64  97 S6        30.02S
OSAGE BEACH    CLEAR     70  66  88 CALM      30.02S
SPRINGFIELD    MOCLDY    71  66  84 S8        30.01S
BRANSON        CLOUDY    70  66  88 CALM      30.03F
JOPLIN         PTCLDY    71  70  96 MISG      30.00F FOG
WEST PLAINS    CLOUDY    69  65  86 CALM      30.05S

$$

IAZ060-094-KSZ022-034>040-054-083-096-NEZ052-066-093-300800-
...KANSAS...SOUTHEAST NEBRASKA AND IOWA...

CITY           SKY/WX    TMP DP  RH WIND       PRES   REMARKS
TOPEKA         CLEAR     64  62  93 CALM      30.04F
MANHATTAN      CLOUDY    64  63  96 CALM      30.05S FOG
EMPORIA        CLEAR     62  61  96 NE6       30.04S FOG
CHANUTE        MOCLDY    67  66  97 N5        30.02F
WICHITA        CLEAR     65  60  84 NE3       30.03F
OMAHA          PTCLDY    67  62  84 S6        30.04F
LINCOLN        CLOUDY    63  60  90 W3        30.07S FOG
FALLS CITY     FOG       56  56 100 CALM      30.05S VSB 1/2
LAMONI         CLOUDY    65  64  97 CALM      30.04F FOG
DES MOINES     PTCLDY    66  62  87 SE3       30.04F

$$




USA.gov is the U.S. government's official web portal to all federal, state and local government web resources and services.